Powrót do katalogu

SL-16 DEB

AktywnyLEO
NORAD 23302·DEBRIS·🇷🇺 Russia

Wystrzelony Dec 25, 1992 z Baikonur Cosmodrome

Loading…

Następne Przeloty (najbliższe 24 godziny)

TLE

Starzejące sięSource: Space-Track

Epoka: Sep 11, 2026, 15:12 UTC

1 23302U 92093JH  26254.63366806  .00001046  00000-0  54034-3 0  9990
2 23302  71.1321 327.4501 0112198 171.1989 338.8906 14.14060036666434

Śledź SL-16 DEB w czasie rzeczywistym z AllMySat

Download on the App Store